TimeMDT,TemperatureF,Dew PointF,Humidity,Sea Level PressureIn,VisibilityMPH,Wind Direction,Wind SpeedMPH,Gust SpeedMPH,PrecipitationIn,Events,Conditions,WindDirDegrees,DateUTC
6:50 AM,35.6,15.8,44,29.89,15.0,Variable,5.8,-,N/A,,Mostly Cloudy,0,2013-04-14 12:50:00
7:50 AM,35.6,17.6,48,29.90,15.0,Variable,5.8,-,N/A,,Mostly Cloudy,0,2013-04-14 13:50:00
9:02 AM,37.4,17.6,45,29.91,15.0,Variable,5.8,-,N/A,,Mostly Cloudy,0,2013-04-14 15:02:00
9:50 AM,39.2,17.6,42,29.91,15.0,Variable,5.8,-,N/A,,Mostly Cloudy,0,2013-04-14 15:50:00
10:57 AM,41.0,12.2,31,29.91,15.0,NNE,3.5,-,N/A,,Partly Cloudy,30,2013-04-14 16:57:00
11:51 AM,42.8,12.2,29,29.91,15.0,WNW,6.9,-,N/A,,Partly Cloudy,300,2013-04-14 17:51:00
12:49 PM,44.6,14.0,29,29.88,15.0,WNW,8.1,-,N/A,,Scattered Clouds,300,2013-04-14 18:49:00
2:47 PM,46.4,12.2,25,29.83,15.0,NW,4.6,-,N/A,,Scattered Clouds,320,2013-04-14 20:47:00
3:51 PM,48.2,17.6,30,29.80,15.0,West,4.6,-,N/A,,Scattered Clouds,270,2013-04-14 21:51:00
4:52 PM,48.2,12.2,24,29.76,15.0,Variable,4.6,-,N/A,,Mostly Cloudy,0,2013-04-14 22:52:00
5:47 PM,48.2,15.8,27,29.73,15.0,Variable,4.6,-,N/A,,Scattered Clouds,0,2013-04-14 23:47:00
6:50 PM,48.2,19.4,32,29.69,15.0,Variable,4.6,-,N/A,,Scattered Clouds,0,2013-04-15 00:50:00
7:55 PM,44.6,19.4,37,29.67,15.0,WNW,17.3,-,N/A,,Scattered Clouds,300,2013-04-15 01:55:00
8:52 PM,42.8,17.6,36,29.67,15.0,WNW,17.3,27.6,N/A,,Overcast,300,2013-04-15 02:52:00
8:55 PM,42.8,17.6,36,29.67,10.0,NW,24.2,27.6,N/A,,Overcast,320,2013-04-15 02:55:00
9:15 PM,42.8,17.6,36,29.68,10.0,NW,20.7,25.3,N/A,,Overcast,320,2013-04-15 03:15:00
9:35 PM,42.8,17.6,36,29.68,10.0,NW,19.6,-,N/A,,Overcast,320,2013-04-15 03:35:00
9:55 PM,42.8,15.8,34,29.70,10.0,NW,16.1,-,N/A,,Overcast,320,2013-04-15 03:55:00
10:15 PM,42.8,17.6,36,29.70,10.0,NW,17.3,20.7,N/A,,Mostly Cloudy,320,2013-04-15 04:15:00
10:35 PM,42.8,17.6,36,29.70,10.0,NNW,16.1,-,N/A,,Mostly Cloudy,330,2013-04-15 04:35:00
10:55 PM,42.8,17.6,36,29.69,10.0,NNW,11.5,-,N/A,,Overcast,340,2013-04-15 04:55:00
11:15 PM,42.8,17.6,36,29.67,10.0,North,10.4,-,N/A,,Mostly Cloudy,10,2013-04-15 05:15:00
11:35 PM,42.8,19.4,39,29.66,10.0,NNE,10.4,-,N/A,,Partly Cloudy,30,2013-04-15 05:35:00
11:55 PM,39.2,26.6,61,29.66,10.0,North,8.1,-,N/A,,Mostly Cloudy,10,2013-04-15 05:55:00